Satellite-Ground Cal/Val Site Overpasses Predictions

Prediction of Satellite NPP Overpassing Cal/Val Site: Antarctic Dome C

Ground Cal/Val Site Location: Latitude: -75.10, Longitude: 123.35; Satellite-Ground Site NADIR distance within 100 km.

Table of predicted overpasses for the next 14.0 days since TLE Epoch: 7/31/2021
Interval Starting Time Ending Time Minimum Distance Time Minimum Distance (km)
1 08/01/2021 07:31:49 08/01/2021 07:32:19 08/01/2021 07:32:04 0.99
2 08/04/2021 14:55:19 08/04/2021 14:55:48 08/04/2021 14:55:33 24.74
3 08/05/2021 14:36:36 08/05/2021 14:36:52 08/05/2021 14:36:44 82.56
4 08/06/2021 07:38:10 08/06/2021 07:38:38 08/06/2021 07:38:24 37.12
5 08/07/2021 07:19:25 08/07/2021 07:19:45 08/07/2021 07:19:35 72.74
6 08/09/2021 15:01:41 08/09/2021 15:02:04 08/09/2021 15:01:53 61.91
7 08/10/2021 14:42:51 08/10/2021 14:43:17 08/10/2021 14:43:04 47.37
8 08/11/2021 07:44:34 08/11/2021 07:44:54 08/11/2021 07:44:44 72.53
